Welcome to the New NWS' Forecast!
Most changes are behind the scenes, but click here for differences you might notice.
Latest weather observations around

Russellville, Russellville Regional Airport (KRUE)

Using English Units (Switch to International System of Units)
Date/ Time (CDT) Wind (mph) Vis. (mi) Weather Sky Cond. Temp (°F) Rel. Humidity Wind Chill (°F) Heat Index (°F) Pressure Precip. (in)
Air Dwpt 6 hour Altimeter (inHg) Sea level (inHg) 1 hr 3 hr 6 hr
Max Min
Apr 28 05:53 E 7 10 Mostly Cloudy BKN050 59 54     83%     29.74 29.73      
Apr 28 04:53 ENE 7 10 Clear CLR 57 54     89%     29.76 29.74      
Apr 28 03:53 ENE 3 10 Clear CLR 57 53     87%     29.75 29.73      
Apr 28 02:53 Calm 10 Clear CLR 55 52     89%     29.75 29.74      
Apr 28 01:53 E 5 10 Clear CLR 57 52     83%     29.78 29.76      
Apr 28 00:53 E 3 10 Clear CLR 58 52     81%     29.78 29.76      
Apr 27 23:53 E 3 10 Clear CLR 58 51     78%     29.76 29.75      
Apr 27 22:53 E 3 10 Clear CLR 57 51     81%     29.77 29.75      
Apr 27 21:53 3 10 Clear CLR 59 52     78%     29.75 29.73      
Apr 27 20:53 E 3 10 Clear CLR 59 51     75%     29.73 29.72      
Apr 27 19:53 Calm 10 Clear CLR 64 49     58%     29.71 29.7      
Apr 27 18:53 6 10 Clear CLR 67 49     52%     29.71 29.7      
Apr 27 17:53 7 10 Clear CLR 68 51     55%     29.71 29.7      
Apr 27 16:53 E 8 10 Clear CLR 69 50     51%     29.73 29.72      
Apr 27 15:53 3 10 Clear CLR 68 48     49%     29.76 29.75      
Apr 27 14:53 S 5 10 Clear CLR 64 46     52%     29.8 29.78      
Apr 27 13:53 Calm 10 Clear CLR 64 49     58%     29.82 29.81      
Apr 27 12:53 S 6 10 Clear CLR 61 47     60%     29.82 29.81      
Apr 27 11:53 5 10 Clear CLR 59 46     62%     29.83 29.81      
Apr 27 10:53 N 3 10 Mostly Clear FEW020 57 46     67%     29.85 29.84      
Apr 27 09:53 SSW 3 10 Mostly Clear FEW015 52 44     74%     29.84 29.83      
Apr 27 09:42 S 3 10 Partly Cloudy SCT015 52 46     80%     29.82        
Apr 27 09:25 Calm 10 Mostly Cloudy FEW009 BKN015 52 46     80%     29.82        
Apr 27 08:53 Calm 10 Cloudy OVC009 50 46     86%     29.81 29.8      
Apr 27 08:27 N 5 10 Mostly Cloudy BKN008 49 46     90% 47   29.8        
Apr 27 07:53 NNE 3 10 Cloudy OVC011 48 46     93% 47   29.81 29.8      
Apr 27 06:53 Calm 7 Cloudy OVC011 44 43     96%     29.79 29.78      
Apr 27 06:27 Calm 6 Fog/Mist BKN011 42 41     96%     29.78        
Apr 27 05:53 Calm 7 Mostly Clear FEW011 43 42     97%     29.76 29.75      
Apr 27 04:53 ENE 3 8 Clear CLR 43 42     97% 41   29.73 29.72      
Apr 27 03:53 Calm 10 Clear CLR 45 43     93%     29.73 29.71      
Apr 27 02:53 WSW 6 10 Clear CLR 47 44     90% 44   29.71 29.7      
Apr 27 01:53 W 10 10 Clear CLR 48 45     89% 43   29.71 29.7      
Apr 27 00:53 WNW 9 10 Clear CLR 50 44     80% 46   29.72 29.7     0
Apr 27 00:36 WNW 9 10 Partly Cloudy SCT026 50 44     80% 46   29.72        
Apr 26 23:53 WNW 10 10 Cloudy OVC024 50 45     83% 46   29.71 29.69      
Apr 26 22:53 WNW 17 10 Cloudy OVC017 51 46     83%     29.69 29.67      
Apr 26 21:53 WNW 15 10 Cloudy OVC016 52 47     83%     29.67 29.65   0  
Apr 26 21:50 W 13 10 Cloudy OVC016 52 46     82%     29.67        
Apr 26 20:53 WSW 11 10 Cloudy OVC011 52 49     89%     29.6 29.59      
Apr 26 20:13 W 15 10 Cloudy OVC010 53 50     89%     29.57        
Apr 26 19:53 W 17 10 Cloudy OVC009 53 50     89%     29.57 29.55 0    
Apr 26 19:46 W 15 10 Cloudy OVC009 53 51     93%     29.56   0    
Apr 26 19:34 W 11 10 Cloudy OVC010 54 51     90%     29.56   0    
Apr 26 18:53 W 14 3 Light Rain and Fog/Mist OVC007 54 53     97%     29.53 29.51 0   0
Apr 26 18:51 W 10 3 Rain and Fog/Mist OVC007 54 54     100%     29.53   0    
Apr 26 18:46 W 8 2.5 Rain and Fog/Mist OVC006 54 53     97%     29.53   0    
Apr 26 18:28 WNW 10 4 Fog/Mist BKN009 OVC020 55 53     93%     29.52        
Apr 26 17:53 WNW 11 5 Fog/Mist BKN010 OVC017 56 54     93%     29.5 29.48 0    
Apr 26 17:45 W 10 7 Cloudy BKN010 OVC017 56 54     93%     29.51   0    
Apr 26 16:53 WNW 10 10 Light Rain BKN007 OVC014 58 56     93%     29.48 29.47 0    
Apr 26 16:36 W 13 10 Light Rain BKN005 BKN012 OVC110 61 60     97%     29.47   0    
Apr 26 16:18 NE 5 9 Light Rain SCT004 BKN011 OVC110 61 60     97%     29.42   0    
Apr 26 16:04 ENE 7 3 Heavy Rain and Fog/Mist SCT004 BKN009 OVC015 61 60     97%     29.46   0    
Apr 26 15:53 WNW 3 1.75 Heavy Rain and Fog/Mist SCT004 OVC009 61 60     97%     29.48 29.46 0 0  
Apr 26 15:49 NW 5 1.75 Heavy Rain and Fog/Mist SCT004 OVC009 61 61     100%     29.48   0    
Apr 26 15:47 WNW 6 2 Heavy Rain and Fog/Mist BKN004 OVC009 61 61     100%     29.49   0    
Apr 26 15:42 W 5 1.75 Thunderstorms and Heavy Rain and Fog/Mist BKN004 OVC009 61 60     97%     29.5   0    
Apr 26 15:31 N 3 2.5 Thunderstorms and Heavy Rain and Fog/Mist BKN006 OVC014 61 60     97%     29.49   0    
Apr 26 15:21 W 5 5 Rain and Fog/Mist OVC006 60 60     100%     29.5   0    
Apr 26 15:12 W 8 9 Light Rain OVC006 61 60     97%     29.51   0    
Apr 26 14:53 N 3 5 Thunderstorms and Rain and Fog/Mist OVC006 61 60     97%     29.48 29.46 0    
Apr 26 14:32 S 5 6 Thunderstorms and Rain and Fog/Mist OVC004 60 60     100%     29.52   0    
Apr 26 14:08 SSW 5 9 Thunderstorms and Rain BKN005 BKN095 OVC110 60 59     96%     29.52   0    
Apr 26 13:53 5 9 Light Rain FEW009 SCT060 OVC110 59 58     96%     29.49 29.47 0    
Apr 26 13:35 E 3 4 Thunderstorms and Heavy Rain and Fog/Mist FEW010 BKN060 OVC110 59 58     96%     29.49   0    
Apr 26 13:26 Calm 10 Cloudy SCT009 BKN065 OVC110 59 58     96%     29.52   0    
Apr 26 13:13 3 9 Light Rain BKN007 BKN024 OVC110 59 58     96%     29.51   0    
Apr 26 13:05 Calm 6 Light Rain and Fog/Mist SCT006 BKN023 OVC100 59 58     96%     29.5   0    
Apr 26 12:53 ENE 3 4 Rain and Fog/Mist FEW016 BKN040 OVC110 59 58     96%     29.51 29.49 0   1
Apr 26 12:36 SE 5 4 Thunderstorms and Rain and Fog/Mist FEW018 BKN050 OVC110 58 58     100%     29.52   0    
Apr 26 12:26 3 3 Rain and Fog/Mist SCT016 BKN034 OVC110 58 58     100%     29.54   0    
Apr 26 11:53 5 5 Thunderstorms and Rain and Fog/Mist FEW012 BKN090 OVC110 58 57     97%     29.53 29.51 0    
Apr 26 11:34 E 5 3 Thunderstorms and Rain and Fog/Mist SCT014 BKN041 OVC100 58 57     97%     29.54   0    
Apr 26 11:24 SSW 5 1.75 Thunderstorms and Heavy Rain and Fog/Mist FEW010 BKN046 OVC075 58 57     97%     29.57   0    
Apr 26 11:20 ESE 5 3 Thunderstorms and Heavy Rain and Fog/Mist SCT020 BKN046 OVC075 58 57     97%     29.55   0    
Apr 26 11:13 W 7 2.5 Thunderstorms and Rain and Fog/Mist FEW020 FEW047 OVC075 58 57     97%     29.55   0    
Apr 26 11:04 ENE 6 4 Thunderstorms and Heavy Rain and Fog/Mist FEW045 OVC080 57 56     96%     29.52   0    
Apr 26 10:53 3 10 Light Rain FEW030 OVC080 57 56     96%     29.53 29.51 0    
Apr 26 10:46 Calm 9 Thunderstorms and Rain SCT026 BKN080 OVC100 57 55     93%     29.52   0    
Apr 26 10:38 NNE 7 2 Thunderstorms and Rain and Fog/Mist   57 55     93%     29.51   0    
Apr 26 10:31 NE 7 0.5 Thunderstorms and Heavy Rain and Fog   57 56     96%     29.53   0    
Apr 26 10:22 W 10   Thunderstorms and Heavy Rain   59 56     90%         0    
Apr 26 10:08     Thunderstorms   72        %     29.5        
Apr 26 09:53 SSE 9 10 Cloudy BKN019 OVC023 71 65     81%   72 29.5 29.47      
Apr 26 09:18 SSE 10 10 Cloudy FEW017 BKN028 OVC043 71 65     81%   72 29.5        
Apr 26 08:53 SSE 8 10 Cloudy FEW020 BKN040 OVC050 72 65     79%   73 29.49 29.47      
Apr 26 08:40 SSE 8 10 Cloudy FEW020 BKN032 OVC050 72 65     79%   73 29.5        
Apr 26 07:53 5 10 Cloudy BKN020 OVC025 70 65     84%     29.51 29.48      
Apr 26 07:07 E 6 10 Cloudy BKN025 OVC038 70 64     81%     29.5        
Apr 26 06:53 6 10 Cloudy FEW025 BKN038 OVC049 70 64     81%     29.5 29.48      
Apr 26 05:53 Calm 10 Cloudy OVC070 71 64     79%   72 29.5 29.48      
Apr 26 04:53 6 10 Cloudy FEW048 OVC060 72 64     76%   72 29.52 29.5      
Apr 26 03:53 Calm 10 Cloudy BKN030 BKN035 OVC055 71 64     79%   72 29.54 29.51      
Apr 26 02:53 5 10 Cloudy OVC030 73 64     73%   73 29.52 29.49      
Apr 26 01:53 3 10 Cloudy OVC030 73 63     71%   73 29.5 29.48      
Apr 26 00:53 6 10 Partly Cloudy SCT035 73 62     68%   73 29.48 29.46      
Apr 25 23:53 5 10 Mostly Cloudy FEW038 BKN060 74 62     66%   74 29.51 29.49      
Apr 25 22:53 S 7 10 Clear CLR 74 62     66%   74 29.51 29.48      
Apr 25 21:53 5 10 Mostly Clear FEW055 75 61     62%   75 29.5 29.48      
Apr 25 20:53 E 3 10 Cloudy OVC050 76 61     60%   76 29.51 29.49      
Apr 25 19:53 S 8 10 Mostly Cloudy BKN050 76 61     60%   76 29.5 29.48      
Apr 25 18:53 Calm 10 Mostly Cloudy BKN050 78 61     56%   78 29.49 29.47      
Apr 25 17:53 S 9 10 Clear   81 61     51%   82 29.49 29.47      
Apr 25 16:53 SSW 9 10 Clear CLR 82 61     49%   83 29.49 29.47      
Apr 25 15:53 S 11 10 Clear CLR 82 61     49%   83 29.5 29.48      
Apr 25 14:53 S 14 10 Clear CLR 81 60     49%   82 29.51 29.49      
Apr 25 13:53 S 11 10 Clear CLR 79 58     49%   79 29.54 29.52      
Apr 25 12:53 SE 8 10 Clear CLR 77 55     47%   77 29.57 29.54      
Apr 25 11:53 S 9 10 Clear CLR 74 53     48%   73 29.6 29.58      
Apr 25 09:53 6 10 Clear CLR 69 54     59%     29.64 29.62      
Apr 25 08:53 5 10 Clear CLR 64 52     65%     29.66 29.64      
Apr 25 07:53 5 10 Clear CLR 61 48     62%     29.66 29.65      
Apr 25 07:22 3 10 Mostly Clear FEW002 58 47     67%     29.66        
Apr 25 06:53 SE 3 10 Clear CLR 55 46     72%     29.66 29.64      
Apr 25 05:53 SE 3 10 Clear CLR 51 47     86%     29.66 29.65      
Apr 25 04:53 Calm 10 Clear CLR 51 47     86%     29.66 29.64      
Apr 25 03:53 Calm 10 Clear CLR 53 47     80%     29.67 29.65      
Apr 25 02:53 Calm 10 Clear CLR 58 44     60%     29.68 29.66      
Apr 25 01:53 5 10 Clear CLR 60 44     55%     29.7 29.67      
Apr 25 00:53 Calm 10 Clear CLR 59 45     60%     29.71 29.7      
Apr 24 23:53 Calm 10 Clear CLR 56 46     69%     29.72 29.71      
Apr 24 22:53 Calm 10 Clear CLR 57 45     64%     29.71 29.69      
Apr 24 21:53 Calm 10 Clear CLR 61 45     56%     29.72 29.7      
Apr 24 20:53 ESE 5 10 Clear CLR 64 44     48%     29.7 29.69      
Apr 24 19:53 Calm 10 Clear CLR 66 44     45%     29.7 29.69      
Apr 24 18:53 ESE 7 10 Clear CLR 73 44     35%   72 29.7 29.69      
Apr 24 17:53 E 7 10 Clear CLR 76 42     30%   75 29.72 29.7      
Apr 24 16:53 Calm 10 Clear CLR 76 37     24%   74 29.75 29.73      
Apr 24 15:53 3 10 Clear CLR 76 39     26%   74 29.78 29.76      
Apr 24 14:53 5 10 Clear CLR 74 35     24%   72 29.82 29.8      
Apr 24 13:53 S 5 10 Clear CLR 73 33     23%   71 29.86 29.84      
Apr 24 12:53 3 10 Clear CLR 71 36     28%   69 29.91 29.89      
Apr 24 11:53 Calm 10 Clear CLR 70 39     32%     29.95 29.93      
Apr 24 10:53 Calm 10 Clear CLR 65 46     50%     29.98 29.96      
Apr 24 09:53 NNW 5 10 Clear CLR 61 46     58%     29.99 29.97      
Apr 24 08:53 Calm 10 Clear CLR 54 47     77%     29.99 29.98      
Apr 24 07:53 NW 3 10 Clear CLR 48 43     83% 47   29.99 29.98      
Apr 24 06:53 Calm 10 Clear CLR 41 40     96%     29.99 29.98      
Apr 24 05:53 Calm 10 Clear CLR 40 39     97%     29.96 29.95      
Apr 24 04:53 Calm 10 Clear CLR 41 40     96%     29.95 29.94      
Apr 24 03:53 Calm 10 Clear CLR 43 41     93%     29.95 29.93      
Apr 24 02:53 Calm 10 Clear CLR 43 42     97%     29.95 29.93      
Apr 24 01:53 Calm 10 Clear CLR 45 43     93%     29.94 29.92      
Apr 24 00:53 Calm 10 Clear CLR 46 43     89%     29.92 29.91      
Apr 23 23:53 Calm 10 Clear CLR 48 43     83%     29.95 29.94      
Apr 23 22:53 ENE 3 10 Clear CLR 49 43     80% 48   29.98 29.97      
Apr 23 21:53 ENE 3 10 Clear CLR 51 45     79%     29.99 29.97      
Apr 23 20:53 Calm 10 Clear CLR 56 45     67%     29.99 29.98      
Apr 23 19:53 NNE 3 10 Clear CLR 63 42     46%     29.98 29.96      
Apr 23 18:53 N 7 10 Clear CLR 72 35     26%   70 29.98 29.96      
Apr 23 17:53 N 10 10 Clear CLR 73 34     24%   71 29.98 29.96      
Apr 23 16:53 NNW 11 10 Clear CLR 73 35     25%   71 29.97 29.95      
Apr 23 15:53 N 9 10 Clear CLR 73 35     25%   71 29.98 29.96      
Apr 23 14:53 N 10 10 Clear CLR 72 36     27%   70 29.99 29.98      
Apr 23 13:53 7 10 Clear CLR 69 36     30%     30.01 29.99      
Apr 23 12:53 N 11 10 Clear CLR 67 38     34%     30.03 30.02      
Apr 23 11:53 N 13 10 Clear CLR 64 37     37%     30.05 30.04      
Apr 23 10:53 N 14 10 Clear CLR 62 38     41%     30.08 30.06      
Apr 23 09:53 N 9 10 Clear CLR 58 40     51%     30.07 30.06      
Apr 23 08:53 NNW 8 10 Clear CLR 54 42     64%     30.07 30.05      
Apr 23 07:53 NNW 5 10 Clear CLR 51 45     79%     30.07 30.06      
Apr 23 06:53 NNW 3 10 Clear CLR 47 44     90% 46   30.05 30.04     0
Apr 23 05:53 NW 3 10 Clear CLR 49 44     83% 48   30.04 30.03      
Apr 23 04:53 WNW 3 10 Cloudy OVC070 51 45     79%     30.03 30.02      
Apr 23 03:53 NNW 5 10 Cloudy OVC060 51 44     77%     30.03 30.02   0  
Apr 23 02:53 Calm 10 Cloudy OVC055 51 45     79%     30.04 30.02      
Apr 23 01:53 WNW 5 10 Cloudy OVC050 51 45     79%     30.04 30.03 0    
Apr 23 00:53 NNW 6 10 Cloudy SCT029 OVC070 51 45     79%     30.05 30.04      
Apr 23 00:50 NW 5 10 Cloudy SCT027 OVC070 52 45     76%     30.05        
Apr 22 23:53 NNW 7 10 Cloudy OVC026 51 45     79%     30.06 30.05      
Apr 22 22:53 NNW 6 10 Cloudy OVC027 51 45     79%     30.07 30.05      
Apr 22 22:27 NNW 9 10 Cloudy BKN027 OVC048 52 45     77%     30.07        
Apr 22 21:53 N 9 10 Cloudy SCT028 SCT034 OVC046 52 46     80%     30.06 30.05      
Apr 22 21:50 N 9 10 Cloudy FEW021 SCT028 OVC046 52 46     82%     30.06        
Apr 22 20:53 N 6 10 Cloudy BKN027 OVC033 54 47     77%     30.04 30.03      
Apr 22 19:53 N 8 10 Cloudy BKN033 OVC040 54 46     74%     30.02 30.01      
Apr 22 19:11 NNW 8 10 Cloudy FEW026 OVC034 54 46     74%     30.01        
Apr 22 18:53 N 7 10 Cloudy OVC026 54 45     72%     30.01 30      
Apr 22 17:53 NNW 8 10 Cloudy OVC022 54 46     74%     30 29.99      
Apr 22 16:53 N 11 10 Cloudy OVC018 55 49     80%     29.98 29.96      
Apr 22 15:53 N 10 10 Cloudy BKN019 BKN027 OVC034 57 48     72%     29.96 29.95      
Apr 22 14:53 N 10 5 Fog/Mist FEW013 OVC021 55 52     89%     29.96 29.94      
Apr 22 13:53 N 9 10 Cloudy OVC023 60 51     72%     29.94 29.93      
Apr 22 12:53 NNW 6 10 Cloudy SCT018 OVC026 60 53     78%     29.94 29.93     0
Apr 22 11:53 NNE 9 10 Cloudy BKN015 BKN031 OVC038 59 54     83%     29.95 29.93      
Apr 22 11:51 NE 10 10 Cloudy SCT012 BKN018 OVC038 59 54     82%     29.95        
Apr 22 11:16 NNE 10 9 Cloudy OVC013 58 54     87%     29.95        
Apr 22 11:01 NNE 8 9 Cloudy SCT009 OVC015 57 53     87%     29.95        
Apr 22 10:53 NNE 8 9 Cloudy FEW006 BKN010 OVC017 57 54     89%     29.95 29.93      
Apr 22 10:43 NNE 8 5 Fog/Mist BKN007 OVC015 56 53     90%     29.95        
Apr 22 10:34 N 7 2.5 Fog/Mist BKN007 OVC015 56 53     90%     29.95        
Apr 22 10:24 N 6 2.5 Fog/Mist FEW007 OVC015 55 53     93%     29.94        
Apr 22 10:17 NNW 6 2 Fog/Mist BKN013 OVC018 55 53     93%     29.94        
Apr 22 10:15 N 6 2 Fog/Mist SCT010 OVC015 55 53     93%     29.94        
Apr 22 10:12 NNW 8 2 Fog/Mist OVC013 56 53     90%     29.94        
Apr 22 09:53 N 8 10 Cloudy OVC011 55 51     86%     29.94 29.92   0  
Apr 22 09:24 N 5 10 Cloudy BKN012 OVC020 56 52     87%     29.92        
Apr 22 08:53 E 3 10 Cloudy FEW009 OVC023 55 52     89%     29.91 29.9 0    
Apr 22 08:37 NNE 3 10 Cloudy FEW009 BKN025 OVC033 55 52     89%     29.91   0    
Apr 22 08:14 NE 7 9 Cloudy SCT007 OVC030 54 52     93%     29.91        
Apr 22 08:08 N 7 6 Fog/Mist BKN007 BKN025 OVC032 54 52     93%     29.91        
Apr 22 07:59 N 6 3 Fog/Mist SCT007 BKN016 OVC021 54 52     93%     29.91        
Apr 22 07:53 N 6 2 Fog/Mist BKN007 OVC017 54 53     97%     29.91 29.9 0    
Apr 22 07:40 Calm 1.5 Light Rain and Fog/Mist FEW007 OVC017 54 52     93%     29.91   0    
Apr 22 07:17 Calm 2 Light Rain and Fog/Mist FEW007 OVC017 53 52     96%     29.9   0    
Apr 22 07:09 NNE 6 1.75 Light Rain and Fog/Mist OVC015 53 51     93%     29.9   0    
Apr 22 06:53 NE 3 10 Cloudy OVC014 54 51     90%     29.89 29.88      
Apr 22 06:35 N 6 10 Cloudy OVC013 54 51     90%     29.89        
Apr 22 06:15 Calm 10 Cloudy FEW009 BKN015 OVC027 53 51     93%     29.87        
Apr 22 06:07 E 5 10 Cloudy FEW009 OVC014 53 51     93%     29.86        
Apr 22 05:53 Calm 10 Cloudy BKN009 OVC014 53 52     96%     29.86 29.85      
Apr 22 04:53 NNE 5 9 Cloudy OVC009 54 52     93%     29.85 29.83      
Apr 22 04:41 NNE 6 10 Cloudy OVC009 54 52     93%     29.85        
Apr 22 03:53 Calm 10 Cloudy OVC007 54 52     93%     29.85 29.83      
Apr 22 02:53 E 5 10 Cloudy BKN012 OVC048 55 52     89%     29.84 29.82      
Apr 22 02:08 3 10 Cloudy BKN013 BKN033 OVC060 55 52     89%     29.85        
Apr 22 01:53 Calm 10 Cloudy FEW012 SCT033 OVC060 55 52     89%     29.83 29.82      
Apr 22 00:53 ESE 5 10 Mostly Cloudy FEW011 BKN043 BKN050 56 54     93%     29.84 29.83 0   0
Apr 22 00:28 3 10 Light Rain FEW013 BKN033 OVC055 56 54     93%     29.86   0    
Apr 22 00:21 E 7 5 Light Rain and Fog/Mist FEW013 BKN021 OVC032 56 54     93%     29.85   0    
Apr 22 00:11 NE 9 5 Heavy Rain and Fog/Mist SCT013 BKN020 OVC032 57 55     93%     29.87   0    
Apr 22 00:00 NNW 11 8 Thunderstorms and Rain OVC013 57 55     93%     29.89   0    
Apr 21 23:53   6 Rain and Fog/Mist OVC011 57 54     89%     29.87 29.85 0    
Apr 21 23:20 Calm 10 Light Rain BKN011 BKN023 OVC033 58 55     90%     29.85   0    
Apr 21 23:06 ENE 8 10 Cloudy FEW011 BKN021 OVC075 58 55     90%     29.84   0    
Apr 21 22:53 E 8 10 Light Rain SCT018 BKN034 OVC070 58 55     90%     29.82 29.8 0    
Apr 21 22:35 E 8 10 Cloudy SCT013 OVC017 59 55     87%     29.82        
Apr 21 22:23 E 9 10 Cloudy OVC013 59 56     90%     29.82        
Apr 21 22:01 7 10 Cloudy OVC009 59 56     90%     29.83        
Apr 21 21:53 E 10 10 Cloudy OVC010 59 57     93%     29.82 29.81   0  
Apr 21 20:53 E 9 10 Cloudy OVC011 60 57     90%     29.81 29.79 0    
Apr 21 19:53 7 10 Mostly Cloudy BKN012 BKN034 60 56     86%     29.83 29.81      
Apr 21 18:53 E 7 10 Cloudy BKN039 OVC050 61 57     87%     29.82 29.8 0   0
Apr 21 18:11 ENE 7 10 Cloudy FEW014 SCT019 OVC041 63 58     84%     29.85        
Apr 21 17:53 E 10 10 Cloudy SCT014 BKN019 OVC046 64 59     84%     29.86 29.84      
Apr 21 17:31 E 8 10 Mostly Cloudy BKN017 66 60     81%     29.85        
Apr 21 16:53 E 9 10 Partly Cloudy FEW055 FEW070 SCT100 66 60     81%     29.85 29.83      
Apr 21 15:53 NNE 6 10 Mostly Clear FEW006 65 60     84%     29.87 29.85 0 0  
Apr 21 15:43 3 10 Mostly Clear FEW006 FEW028 64 60     87%     29.88   0    
Apr 21 15:22 Calm 10 Cloudy SCT031 BKN090 OVC110 61 59     93%     29.89   0    
Apr 21 15:09 ENE 8 9 Light Rain FEW070 SCT090 OVC110 60 58     93%     29.88   0    
Apr 21 14:53 SE 8 8 Thunderstorms and Rain FEW014 BKN050 OVC095 60 59     96%     29.93 29.91 0    
Apr 21 14:41 Calm 3 Thunderstorms and Heavy Rain and Fog/Mist FEW025 BKN037 OVC055 62 58     86%     29.96   0    
Apr 21 14:13 Calm 9 Light Rain OVC038 62 58     86%     29.92   0    
Apr 21 14:00 S 5 2.5 Heavy Rain and Fog/Mist OVC039 62 58     86%     29.93   0    
Apr 21 13:53 3 3 Heavy Rain OVC039 63 57     81%     29.92 29.91 0    
Apr 21 12:53 5 10 Cloudy OVC043 67 59     76%     29.9 29.88     0
Apr 21 11:53 E 8 10 Cloudy OVC050 63 57     81%     29.92 29.9 0    
Apr 21 10:53   10 Cloudy OVC060 60 56     86%     29.95 29.93 0    
Apr 21 09:53 ENE 17 10 Light Rain FEW023 BKN065 OVC080 58 54     87%     29.97 29.96 0 0  
Apr 21 09:31 NE 16 6 Rain and Fog/Mist FEW025 OVC060 57 53     87%     29.99   0    
Apr 21 09:12   4 Thunderstorms and Heavy Rain and Fog/Mist FEW018 BKN035 OVC055 57 53     87%     30.01   0    
Apr 21 09:04 NNE 18 10 Light Rain SCT018 OVC037 58 54     87%     30.02   0    
Apr 21 08:53 NNW 17 7 Light Rain BKN018 OVC032 59 54     83%         0    
Apr 21 08:02 NNE 9 10 Cloudy SCT014 BKN028 OVC037 66 61     84%     29.96        
Apr 21 07:53 NNE 9 10 Cloudy SCT029 BKN037 OVC100 68 64     87%     29.96 29.94      
Apr 21 06:53 Calm 10 Partly Cloudy FEW044 SCT055 66 63     90%     29.94 29.92      
Apr 21 05:53 ESE 5 10 Partly Cloudy FEW050 SCT110 67 63     87%     29.91 29.89      
Apr 21 04:53 Calm 10 Cloudy SCT055 BKN075 OVC090 67 64     90%     29.94 29.91      
Apr 21 03:53 Calm 10 Cloudy SCT070 SCT090 OVC110 67 64     90%     29.94 29.92      
Apr 21 02:53 Calm 10 Cloudy BKN075 OVC095 67 64     90%     29.95 29.92      
Apr 21 01:53 Calm 8 Cloudy OVC085 65 63     93%     29.96 29.94      
Apr 21 00:53 Calm 8 Clear CLR 65 63     93%     29.97 29.94      
Apr 20 23:53 Calm 10 Clear CLR 66 64     93%     29.98 29.96      
Apr 20 22:53 Calm 10 Clear CLR 67 64     90%     29.99 29.96      
Apr 20 21:53 Calm 10 Clear CLR 69 65     87%     29.98 29.96      
Apr 20 20:53 Calm 10 Mostly Cloudy BKN065 71 66     84%   72 29.97 29.95      
Apr 20 19:53 S 3 10 Cloudy SCT065 OVC080 77 64     64%   77 29.96 29.93      
Apr 20 18:53 SSW 3 10 Cloudy OVC080 79 63     58%   79 29.96 29.94      
Apr 20 17:53 SSW 7 10 Cloudy OVC070 80 63     56%   81 29.96 29.94      
Apr 20 16:53 SSW 6 10 Mostly Cloudy FEW055 BKN070 81 62     53%   82 29.96 29.94      
Apr 20 15:53 SW 9 10 Mostly Cloudy FEW045 BKN060 80 62     54%   81 29.98 29.96      
Apr 19 15:53 7 10 Clear CLR 83 62     49%   84 30.03 30      
Apr 19 14:53 S 11 10 Mostly Clear FEW070 FEW090 82 61     49%   83 30.05 30.03      
Apr 19 13:53 SSE 8 10 Mostly Clear FEW060 81 61     51%   82 30.07 30.05      
Apr 19 12:53 S 9 10 Partly Cloudy SCT036 79 62     56%   79 30.09 30.07      
Apr 19 11:53 S 6 10 Partly Cloudy SCT044 77 65     66%   78 30.11 30.09      
Apr 19 10:53 SSW 9 10 Mostly Clear FEW020 74 64     71%   74 30.12 30.1      
Apr 19 10:34 SSW 8 10 Mostly Clear FEW018 73 64     73%   73 30.12        
Apr 19 10:06 SSW 6 10 Mostly Cloudy BKN018 BKN024 73 65     76%   74 30.11        
Apr 19 09:53 S 7 10 Partly Cloudy SCT018 72 64     76%   72 30.11 30.09      
Apr 19 08:53 5 10 Clear CLR 68 64     87%     30.1 30.09      
Apr 19 07:53 Calm 10 Clear CLR 65 63     93%     30.11 30.09      
Apr 19 06:53 3 7 Clear CLR 63 62     97%     30.09 30.07      
Apr 19 05:53 SE 3 10 Clear CLR 63 62     97%     30.08 30.06      
Apr 19 04:53 SE 3 8 Clear CLR 63 62     97%     30.07 30.05      
Apr 19 03:53 SE 3 9 Clear CLR 64 63     96%     30.05 30.03      
Apr 19 02:53 Calm 8 Clear CLR 63 62     97%     30.04 30.02      
Apr 19 01:53 Calm 8 Clear CLR 63 62     97%     30.05 30.03      
Apr 19 00:53 Calm 10 Clear CLR 65 63     93%     30.06 30.04      
Apr 18 22:53 E 3 10 Mostly Clear FEW055 70 64     81%     30.07 30.05      
Apr 18 21:53 3 10 Clear CLR 71 64     79%   72 30.06 30.04      
Apr 18 20:53 E 3 10 Mostly Cloudy SCT050 BKN065 72 64     76%   72 30.05 30.03      
Apr 18 19:53 ESE 5 10 Clear CLR 74 63     69%   74 30.02 30      
Apr 18 18:53 E 3 10 Clear CLR 78 63     60%   78 30.02 30      
Apr 18 17:53 SE 3 10 Clear CLR 79 62     56%   79 30 29.98      
Apr 18 16:53 3 10 Partly Cloudy SCT042 79 62     56%   79 30.02 30      
Apr 18 15:53 Calm 10 Mostly Clear FEW038 78 61     56%   78 30.03 30.01      
Apr 18 14:53 Calm 10 Partly Cloudy SCT035 77 62     60%   77 30.05 30.03      
Apr 18 13:53 5 10 Mostly Cloudy BKN031 74 62     66%   74 30.07 30.05      
Apr 18 13:49 5 10 Mostly Cloudy BKN031 73 61     65%   73 30.07        
Apr 18 13:24 3 10 Cloudy BKN026 OVC033 73 62     68%   73 30.07        
Apr 18 13:12 Calm 10 Cloudy OVC030 73 62     68%   73 30.08        
Apr 18 13:04 Calm 10 Mostly Cloudy FEW021 BKN028 73 62     68%   73 30.08        
Apr 18 12:53 5 10 Mostly Cloudy SCT021 BKN030 73 63     71%   73 30.08 30.06      
Apr 18 11:53 3 10 Mostly Cloudy FEW013 BKN019 BKN024 69 62     78%     30.09 30.06      
Apr 18 11:16 3 10 Cloudy SCT012 OVC019 68 63     84%     30.09        
Apr 18 10:53 5 10 Cloudy OVC012 66 62     87%     30.09 30.07      
Apr 18 09:53 3 10 Cloudy OVC011 67 62     84%     30.08 30.06      
Apr 18 08:53 E 7 10 Cloudy OVC010 66 62     87%     30.08 30.06      
Apr 18 07:53 ENE 3 10 Cloudy OVC013 65 62     90%     30.08 30.06      
Apr 18 06:53 Calm 9 Cloudy OVC013 64 61     90%     30.07 30.05      
Apr 18 06:07 Calm 8 Cloudy BKN014 OVC023 63 62     97%     30.06        
Apr 18 05:53 Calm 7 Cloudy SCT016 OVC023 63 62     97%     30.06 30.04      
Apr 18 05:09 Calm 8 Cloudy FEW014 OVC022 63 62     97%     30.05        
Apr 18 04:53 Calm 8 Cloudy BKN014 OVC022 63 62     97%     30.05 30.03      
Apr 18 04:41 Calm 7 Cloudy OVC012 63 62     97%     30.05        
Apr 18 03:53 Calm 8 Cloudy OVC016 62 61     96%     30.04 30.02      
Apr 18 02:59 Calm 4 Fog/Mist BKN017 61 60     97%     30.04        
Apr 18 02:53 Calm 1.75 Fog/Mist BKN015 60 59     96%     30.04 30.02      
Apr 18 02:50 Calm 1.5 Fog/Mist BKN015 61 59     94%     30.04        
Apr 18 02:39 Calm 2 Fog/Mist SCT015 60 59     96%     30.04        
Apr 18 02:23 Calm 4 Fog/Mist FEW015 61 60     97%     30.04        
Apr 18 02:14 Calm 2 Fog/Mist FEW016 61 60     97%     30.04        
Apr 18 01:59 Calm 10 Partly Cloudy SCT014 61 60     97%     30.04        
Apr 18 01:53 Calm 10 Mostly Cloudy BKN014 61 61     100%     30.04 30.02      
Apr 18 01:30 Calm 7 Mostly Cloudy BKN014 61 61     100%     30.04        
Apr 18 00:53 Calm 10 Clear CLR 62 60     93%     30.05 30.03      
Apr 18 00:42 NNE 3 10 Clear   62 61     96%     30.05        
Apr 17 23:53 Calm 10 Clear   62 62     100%     30.06 30.04      
Apr 17 23:26 Calm 10 Cloudy BKN021 OVC060 62 61     96%     30.06        
Apr 17 23:19 Calm 2.5 Fog/Mist BKN021 BKN060 62 61     96%     30.06        
Apr 17 23:12 Calm 0.75 Fog/Mist BKN021 BKN060 BKN095 61 61     100%     30.06        
Apr 17 23:05 Calm 1.75 Fog/Mist SCT021 BKN060 BKN090 62 61     96%     30.06        
Apr 17 22:53 Calm 4 Fog/Mist BKN090 62 61     96%     30.06 30.04      
Apr 17 21:53 Calm 10 Cloudy SCT031 BKN055 OVC080 62 62     100%     30.06 30.04      
Apr 17 20:53 Calm 10 Clear CLR 63 62     97%     30.03 30.01      
Apr 17 19:53 Calm 10 Clear CLR 64 63     96%     30.01 29.99      
Apr 17 18:53 Calm 10 Mostly Clear FEW100 67 62     84%     30.01 29.99     0
Apr 17 17:53 S 3 10 Mostly Cloudy BKN110 69 61     75%     30.01 29.99      
Apr 17 17:20 Calm 10 Cloudy SCT025 OVC110 69 61     75%     30        
Apr 17 17:06 S 3 10 Mostly Cloudy BKN026 BKN031 70 61     73%     30        
Apr 17 16:53 S 5 10 Mostly Clear FEW026 70 61     73%     30 29.98      
Apr 17 16:29 Calm 10 Mostly Clear FEW025 70 60     71%     29.99        
Apr 17 16:03 Calm 10 Mostly Cloudy BKN024 71 60     68%   71 29.99        
Apr 17 15:53 Calm 10 Partly Cloudy SCT023 71 60     68%   71 29.99 29.97 0 0  
Apr 17 14:53 N 11 10 Light Rain SCT013 OVC100 69 62     78%     30.02 30 0    
Apr 17 14:21 3 10 Cloudy BKN011 OVC100 67 62     84%     30.05        
Apr 17 14:13 SW 3 10 Cloudy BKN009 BKN013 OVC095 66 62     87%     30.05        
Apr 17 14:02 S 3 10 Cloudy BKN011 OVC100 66 63     90%     30.06        
Apr 17 13:53 Calm 10 Cloudy SCT009 BKN016 OVC100 65 62     90%     30.07 30.05 0    
Apr 17 12:53 SW 3 10 Mostly Cloudy FEW009 BKN100 65 62     90%     30.1 30.08     0
Apr 17 11:53 W 6 10 Mostly Cloudy FEW008 SCT012 BKN100 65 62     90%     30.12 30.1      
Apr 17 11:36 W 6 10 Mostly Cloudy FEW010 SCT018 BKN034 65 61     87%     30.13        
Apr 17 11:09 Calm 10 Cloudy FEW009 OVC014 65 62     90%     30.13        
Apr 17 10:58 W 3 10 Cloudy SCT010 OVC016 64 62     93%     30.13        
Apr 17 10:53 W 5 10 Cloudy SCT010 OVC014 64 61     90%     30.13 30.11      
Apr 17 10:40 W 6 10 Mostly Cloudy BKN008 BKN015 BKN044 64 62     93%     30.11        
Apr 17 10:12 N 3 10 Cloudy SCT008 BKN045 OVC120 64 62     93%     30.08        
Apr 17 09:53 NNW 6 10 Cloudy BKN009 BKN046 OVC110 64 62     93%     30.08 30.06 0 0  
Apr 17 08:53 WSW 3 4 Rain and Fog/Mist FEW003 SCT080 OVC100 62 61     96%     30.06 30.04 0    
Apr 17 08:44 Calm 6 Light Rain and Fog/Mist SCT003 BKN080 OVC100 62 61     96%     30.07   0    
Apr 17 08:31 SSW 5 6 Rain and Fog/Mist BKN003 BKN070 OVC100 62 61     96%     30.06   0    
Apr 17 08:11 Calm 8 Light Rain FEW003 OVC100 61 61     100%     30.05   0    
Apr 17 07:53 3 8 Light Rain OVC110 61 61     100%     30.04 30.02 0    
Apr 17 06:53 SW 5 10 Cloudy FEW006 OVC100 62 61     96%     30.06 30.03 0   1
Apr 17 06:46 SW 6 10 Light Rain FEW006 SCT090 OVC110 62 61     96%     30.05   0    
Apr 17 06:30 WSW 7 8 Rain FEW070 BKN085 OVC110 62 61     96%     30.03   0    
Apr 17 06:01 W 7 5 Rain and Fog/Mist BKN065 BKN080 OVC095 62 61     96%     30.06   0    
Apr 17 05:53 W 5 5 Thunderstorms and Heavy Rain and Fog/Mist BKN070 OVC090 61 61     100%     30.06 30.04 0    
Apr 17 05:04 Calm 3 Thunderstorms and Rain and Fog/Mist BKN042 OVC075 61 61     100%     30.05   0    
Apr 17 04:53 Calm 2 Thunderstorms and Heavy Rain and Fog/Mist BKN038 OVC048 62 61     96%     30.05 30.03 1    
Apr 17 04:45 NNE 5 2 Thunderstorms and Heavy Rain and Fog/Mist BKN034 BKN045 OVC055 62 61     96%     30.05   0    
Apr 17 04:28 NW 6 1.75 Clear   62 60     93%     30.06   0    
Apr 17 04:23 NNW 7 4 Clear   62 60     93%     30.06   0    
Apr 17 03:53 W 8 10 Clear   66 60     81%     30.04 30.02      
Apr 17 02:53 Calm 10 Cloudy OVC085 64 61     90%     30.01 29.99      
Apr 17 01:53 Calm 10 Clear CLR 67 61     81%     30.03 30.01      
Apr 17 00:53 Calm 10 Clear CLR 64 61     90%     30.04 30.02      
Apr 16 23:53 E 3 10 Clear CLR 70 60     71%     30.04 30.02      
Apr 16 22:53 E 5 10 Clear CLR 70 61     73%     30.03 30.01      
Apr 16 21:53 Calm 10 Clear CLR 68 62     81%     30.05 30.03      
Apr 16 20:53 Calm 10 Mostly Cloudy BKN090 67 63     87%     30.05 30.03      
Apr 16 19:53 Calm 10 Mostly Cloudy BKN090 70 64     81%     30.04 30.03      
Apr 16 18:53 Calm 10 Clear CLR 77 61     58%   77 30.03 30.01     0
Apr 16 17:53 Calm 10 Clear CLR 78 60     54%   78 30.02 30      
Apr 16 16:53 SW 6 10 Clear CLR 78 59     52%   78 30.01 29.99      
Apr 16 15:53 S 8 10 Clear CLR 78 61     56%   78 30.01 29.99   0  
Apr 16 14:53 S 10 10 Clear CLR 76 63     64%   76 30.02 30      
Apr 16 13:53 7 10 Mostly Clear FEW100 74 63     69%   74 30.05   0    
Apr 16 12:53 Calm 10 Cloudy FEW034 SCT048 OVC085 72 64     76%   72 30.13 30.11      
Apr 16 11:53 Calm 10 Cloudy SCT033 BKN042 OVC070 72 64     76%   72 30.15 30.13      
Apr 16 11:09 Calm 10 Cloudy BKN030 OVC095 72 64     76%   72 30.14        
Apr 09 00:53 Calm 10 Clear CLR 58 51     78%     29.87 29.85      
Apr 08 23:53 Calm 10 Clear CLR 62 50     65%     29.88 29.86      
Apr 08 22:53 SSE 3 10 Clear CLR 66 50     56%     29.88 29.86      
Apr 08 21:53 SSE 3 10 Clear CLR 65 49     56%     29.89 29.87      
Apr 08 20:53 3 10 Clear CLR 70 48     46%     29.87 29.85      
Apr 08 19:53 S 8 10 Clear CLR 73 47     39%   72 29.85 29.83      
Apr 08 18:53 7 10 Clear CLR 75 48     38%   74 29.86 29.84      
Apr 08 17:53 SSW 11 10 Clear CLR 78 48     35%   77 29.87 29.85      
Apr 08 16:53 S 13 10 Clear CLR 79 46     31%   78 29.87 29.86      
Apr 08 15:53 S 14 10 Clear CLR 78 45     31%   77 29.9 29.88      
Apr 08 14:53 S 10 10 Clear CLR 77 44     31%   76 29.93 29.91      
Apr 08 13:53 S 15 10 Clear CLR 77 41     28%   76 29.95 29.93      
Apr 08 12:53 S 14 10 Clear CLR 76 46     35%   75 29.98 29.96      
Apr 08 11:53 5 10 Clear CLR 71 48     44%   70 30.02 30      
Apr 08 10:53 5 10 Clear CLR 66 46     48%     30.04 30.02      
Apr 08 09:53 E 8 10 Clear CLR 60 42     51%     30.05 30.03      
Apr 08 08:53 5 10 Clear CLR 57 43     59%     30.06 30.04      
Apr 08 07:53 Calm 10 Clear CLR 48 45     89%     30.07 30.05      
Apr 08 06:53 Calm 10 Clear CLR 45 41     86%     30.06 30.04      
Apr 08 05:53 Calm 10 Clear CLR 45 40     82%     30.04 30.03      
Apr 08 04:53 Calm 10 Clear CLR 46 41     82%     30.04 30.03      
Apr 08 03:53 Calm 10 Clear CLR 48 39     71%     30.04 30.02      
Apr 08 02:53 Calm 10 Clear CLR 49 39     69%     30.05 30.03      
Apr 08 01:53 3 10 Clear CLR 48 40     73% 47   30.06 30.04      
Apr 08 00:53 Calm 10 Clear CLR 49 40     71%     30.07 30.06      
Apr 07 23:53 Calm 10 Clear CLR 51 39     63%     30.07 30.06      
Apr 07 22:53 ESE 3 10 Clear CLR 55 36     48%     30.08 30.06      
Apr 07 21:53 SE 3 10 Clear CLR 56 36     47%     30.09 30.08      
Apr 07 20:53 ESE 5 10 Clear CLR 59 34     39%     30.08 30.07      
Apr 07 19:53 ESE 3 10 Clear CLR 58 39     49%     30.08 30.07      
Apr 07 18:53 ESE 3 10 Clear CLR 67 35     31%     30.08 30.07      
Apr 07 17:53 SSW 5 10 Clear CLR 69 31     24%     30.09 30.08      
Apr 07 16:53 S 6 10 Clear CLR 69 27     21%     30.11 30.1      
Apr 07 15:53 W 5 10 Clear CLR 69 29     22%     30.14 30.13      
Apr 07 14:53 W 8 10 Clear CLR 68 26     21%     30.18 30.16      
Apr 07 13:53 6 10 Clear CLR 65 28     25%     30.21 30.19      
Apr 07 12:53 W 9 10 Clear CLR 63 30     29%     30.24 30.23      
Apr 07 11:53 6 10 Clear CLR 60 29     31%     30.27 30.26      
Apr 07 10:53 3 10 Clear CLR 59 27     29%     30.28 30.27      
Apr 07 09:53 Calm 10 Clear CLR 55 36     48%     30.28 30.27      
Apr 07 08:53 N 5 10 Clear CLR 50 41     71% 48   30.28 30.27      
Apr 07 07:53 Calm 10 Clear CLR 41 39     93%     30.27 30.26      
Apr 07 06:53 Calm 10 Clear CLR 36 35     96%     30.26 30.24      
Apr 07 05:53 Calm 10 Clear CLR 37 35     92%     30.22 30.21      
Apr 07 04:53 Calm 10 Clear CLR 38 36     92%     30.22 30.21      
Apr 07 03:53 Calm 10 Clear CLR 38 35     89%     30.23 30.22      
Apr 07 02:53 Calm 10 Clear CLR 39 36     89%     30.23 30.22      
Apr 07 01:53 ENE 5 10 Clear CLR 41 36     82% 38   30.22 30.21      
Apr 07 00:53 Calm 10 Clear CLR 41 38     89%     30.22 30.21      
Apr 06 23:53 Calm 10 Clear CLR 43 38     82%     30.2 30.19      
Apr 06 22:53 ENE 3 10 Clear CLR 45 37     74% 44   30.2 30.19      
Apr 06 21:53 Calm 10 Clear CLR 50 37     61%     30.18 30.17      
Apr 06 20:53 NNW 3 10 Clear CLR 57 32     39%     30.15 30.14      
Apr 06 19:53 NNW 7 10 Clear CLR 61 30     31%     30.13 30.11      
Apr 06 18:53 NW 9 10 Clear CLR 64 29     27%     30.12 30.11      
Apr 06 17:53 NW 9 10 Clear CLR 65 29     26%     30.12 30.1      
Apr 06 16:53 WNW 16 10 Mostly Clear FEW090 65 28     25%     30.11 30.09      
Apr 06 15:53 WNW 16 10 Partly Cloudy SCT090 67 30     25%     30.11 30.1      
Apr 06 14:53 WNW 13 10 Mostly Clear FEW085 65 30     27%     30.13 30.11      
Apr 06 13:53 NW 14 10 Partly Cloudy SCT085 66 32     28%     30.14 30.13      
Apr 06 12:53 W 15 10 Partly Cloudy SCT065 SCT080 63 38     40%     30.16 30.15      
Apr 06 11:53 W 14 10 Clear CLR 61 39     44%     30.17 30.16      
Apr 06 10:53   10 Clear CLR 57 38     49%     30.18 30.17      
Apr 06 09:53 W 11 10 Clear CLR 54 40     59%     30.17 30.16      
Apr 06 08:53 WNW 9 10 Clear CLR 51 39     63%     30.16 30.15      
Apr 06 07:53 Calm 10 Clear CLR 45 41     86%     30.14 30.13      
Apr 06 05:53 Calm 10 Clear CLR 40 37     89%     30.06 30.05      
Apr 06 04:53 W 3 10 Clear CLR 43 38     82% 41   30.04 30.03      
Apr 06 03:53 NNW 7 10 Clear CLR 48 37     66% 45   30.02 30.01      
Apr 06 02:53 NNW 7 10 Clear CLR 49 38     66% 46   30.02 30.01      
Apr 06 01:53 WNW 6 10 Clear CLR 48 42     80% 45   30.01 30      
Apr 06 00:53 NNW 7 10 Clear CLR 50 42     74% 47   30.01 30 0   0
Apr 05 23:53   7 Light Rain FEW016 SCT039 OVC055 52 42     69%     29.99 29.97 0    
Apr 05 22:53 WNW 8 10 Clear CLR 53 40     61%     29.97 29.96      
Apr 05 21:53 WNW 6 10 Clear CLR 50 41     71% 48   29.96 29.95      
Apr 05 20:53 Calm 10 Clear CLR 51 40     65%     29.94 29.93      
Apr 05 19:53 NNW 11 10 Mostly Cloudy FEW044 BKN055 54 40     59%     29.92 29.91      
Apr 05 18:53 WNW 15 10 Mostly Cloudy BKN090 57 37     47%     29.89 29.88     0
Apr 05 17:53 WNW 24 10 Partly Cloudy and Windy FEW060 SCT080 SCT095 59 37     44%     29.86 29.85      
Apr 05 16:53   10 Mostly Clear FEW065 58 39     49%     29.83 29.82      
Apr 05 15:53 W 22 10 Cloudy and Windy FEW034 BKN055 OVC070 57 42     57%     29.81 29.8   0  
Apr 05 14:53 WNW 22 10 Cloudy and Windy FEW027 BKN038 OVC060 55 44     66%     29.79 29.78 0    
Apr 05 13:53 WNW 15 8 Light Rain SCT026 BKN036 OVC045 53 46     77%     29.77 29.76 0    
Apr 05 13:04   10 Cloudy OVC032 56 45     67%     29.74        
Apr 05 12:06   10 Mostly Cloudy FEW024 SCT029 BKN036 57 47     69%     29.73        
Apr 05 11:53   10 Cloudy SCT024 BKN029 OVC043 54 47     77%     29.72 29.71      
Apr 05 10:53 W 17 10 Cloudy BKN023 OVC029 54 46     74%     29.71 29.69      
Apr 05 09:12 W 14 10 Cloudy BKN026 OVC044 54 45     72%     29.67        
Apr 05 08:53   10 Cloudy SCT028 OVC043 53 45     74%     29.67 29.66      
Apr 05 07:53 W 11 10 Cloudy OVC039 53 44     71%     29.68 29.66      
Apr 05 07:23 W 13 10 Cloudy OVC031 52 45     77%     29.67        
Apr 05 06:11 W 9 10 Mostly Cloudy BKN019 56 53     90%     29.64        
Apr 05 05:53 W 10 10 Mostly Clear FEW030 56 53     90%     29.63 29.61      
Apr 05 05:00 W 6 10 Clear   54 54     100%     29.6        
Apr 05 04:53 WNW 6 2.5 Clear   54 53     97%     29.6 29.58      
Apr 05 04:41 Calm 0.5 Fog VV002 53 52     96%     29.6        
Apr 05 04:33 Calm 1 Fog/Mist VV001 53 53     100%     29.59        
Apr 05 04:30 Calm 0.75 Fog/Mist CLR 54 53     97%     29.59        
Apr 05 04:15 Calm 1.75 Fog/Mist CLR 54 53     97%     29.59        
Apr 05 02:53 3 10 Light Rain FEW047 SCT090 SCT120 57 55     93%     29.6 29.58      
Apr 05 02:44 5 10 Mostly Cloudy FEW050 BKN075 BKN095 57 55     93%     29.6        
Apr 05 02:29 7 6 Light Rain and Fog/Mist SCT070 BKN080 OVC100 57 56     96%     29.62        
Apr 05 01:53 SSE 5 10 Light Rain BKN070 OVC090 57 55     93%     29.64 29.62      
Apr 05 01:37 6 8 Thunderstorms and Rain BKN070 OVC085 58 55     90%     29.65        
Apr 05 01:14 NNE 8 3 Heavy Rain and Fog/Mist SCT050 BKN070 OVC090 59 56     90%     29.69        
Apr 05 00:30 N 9 9 Rain OVC080 59 55     87%     29.7        
Apr 04 23:53 6 3 Thunderstorms and Rain FEW048 SCT070 OVC085 61 56     83%     29.71        
Apr 04 23:18 W 14 5 Thunderstorms and Rain BKN070 OVC085 65 54     68%     29.68   0    
Apr 04 22:53 NW 18 10 Cloudy BKN080 OVC095 68 52     57%     29.65 29.63      
Apr 04 22:50 NW 17 10 Cloudy BKN080 OVC100 68 52     56%     29.64        
Apr 04 21:53 ESE 3 10 Mostly Cloudy BKN100 71 55     57%   71 29.59 29.57      
Apr 04 20:53 ESE 5 10 Clear CLR 74 55     52%   73 29.57 29.55      
Apr 04 19:53 SSE 3 10 Mostly Cloudy BKN070 76 55     48%   75 29.58 29.57      
Apr 04 18:53 SSE 6 10 Mostly Clear FEW070 80 55     42%   80 29.58 29.57      
Apr 04 17:53 S 9 10 Partly Cloudy SCT075 81 55     41%   81 29.61 29.59      
Apr 04 16:53 S 8 10 Clear CLR 81 54     39%   81 29.62 29.6      
Apr 04 15:53 S 10 10 Clear CLR 83 54     37%   82 29.64 29.62      
Apr 04 14:53 S 8 10 Clear CLR 81 51     35%   80 29.66 29.64      
Apr 04 13:53 5 10 Clear CLR 78 55     45%   78 29.71 29.68      
Apr 04 12:53 Calm 10 Clear CLR 76 55     48%   75 29.74 29.72      
Apr 04 11:53 E 6 10 Clear CLR 73 54     51%   72 29.75 29.74      
Apr 04 10:53 ESE 6 10 Clear CLR 67 55     66%     29.77 29.76      
Apr 04 08:53 Calm 10 Clear CLR 54 52     93%     29.78 29.76      
Apr 04 07:53 Calm 7 Clear CLR 50 50     100%     29.79 29.77      
Apr 04 05:53 Calm 7 Clear CLR 48 47     96%     29.76 29.74      
Apr 04 04:53 Calm 6 Fog/Mist CLR 49 48     97%     29.73 29.72      
Apr 04 03:53 Calm 6 Fog/Mist CLR 49 49     100%     29.73 29.72      
Apr 04 02:53 Calm 6 Fog/Mist CLR 50 49     96%     29.73 29.71      
Apr 04 01:53 Calm 8 Clear CLR 51 50     96%     29.74 29.72      
Apr 04 00:53 Calm 10 Clear CLR 52 51     97%     29.72 29.7      
Apr 03 23:53 Calm 10 Clear CLR 53 52     96%     29.72 29.7      
Apr 03 22:53 Calm 10 Clear CLR 54 52     93%     29.7 29.68      
Apr 03 21:53 Calm 10 Clear CLR 57 53     87%     29.68 29.67      
Apr 03 20:53 Calm 10 Clear CLR 58 54     87%     29.66 29.64      
Apr 03 19:53 W 5 10 Mostly Clear FEW065 66 52     61%     29.65 29.63      
Apr 03 18:53 W 9 10 Clear CLR 70 53     55%     29.62 29.59      
Apr 03 17:53 W 15 10 Clear CLR 72 52     49%   71 29.6 29.57      
Apr 03 16:53 WNW 9 10 Mostly Clear FEW060 73 53     50%   72 29.58 29.56      
Apr 03 15:53 W 18 10 Mostly Clear FEW060 71 52     51%   70 29.57 29.55      
Apr 03 14:53   10 Clear   69 53     57%     29.57 29.56      
Apr 03 13:53 WSW 14 10 Mostly Cloudy SCT038 BKN050 68 53     59%     29.58 29.56      
Apr 03 11:53 SW 11 10 Mostly Cloudy FEW021 SCT025 BKN035 66 58     75%     29.58 29.57      
Apr 03 11:40 WSW 10 10 Mostly Cloudy BKN025 BKN035 BKN045 64 58     81%     29.59        
Apr 03 10:53 SW 9 10 Cloudy FEW025 SCT070 OVC095 63 59     87%     29.58 29.56      
Apr 03 10:43 SW 6 8 Clear   61 58     90%     29.58        
Apr 03 10:35 SW 6 3 Clear   61 58     90%     29.57        
Apr 03 10:14 SSW 8 1.75 Clear   61 59     93%     29.57   0    
Apr 03 09:53 SSW 7 10 Clear   62 59     90%     29.57 29.55      
Apr 03 09:06 S 8 10 Cloudy SCT013 BKN032 OVC045 61 59     93%     29.57        
Apr 03 08:53 S 7 10 Cloudy BKN013 BKN018 OVC034 61 59     93%     29.57 29.55      
Apr 03 08:46 S 6 10 Cloudy BKN013 OVC018 61 59     93%     29.57        
Apr 03 07:53 SSW 7 10 Cloudy BKN020 OVC027 60 59     96%     29.55 29.53      
Apr 03 05:53 S 3 9 Cloudy OVC026 59 59     100%     29.54 29.53      
Apr 03 05:26 Calm 9 Cloudy SCT004 BKN015 OVC028 59 59     100%     29.55        
Apr 03 04:53 Calm 8 Cloudy BKN004 OVC009 59 59     100%     29.55 29.53      
Apr 03 04:42 Calm 6 Fog/Mist BKN004 OVC011 59 59     100%     29.55        
Apr 03 03:53 S 3 10 Cloudy BKN008 OVC013 59 59     100%     29.57 29.55      
Apr 03 03:49 3 10 Cloudy OVC008 59 59     100%     29.57        
Apr 03 03:15 ESE 3 4 Fog/Mist FEW005 OVC012 59 58     96%     29.55        
Apr 03 02:53 3 3 Fog/Mist BKN005 OVC010 59 58     96%     29.57 29.55      
Apr 03 02:37 Calm 3 Fog/Mist OVC005 59 58     96%     29.58        
Apr 03 02:11 E 3 2.5 Fog/Mist OVC006 59 58     96%     29.59        
Apr 03 02:03 Calm 2.5 Fog/Mist BKN007 OVC013 59 58     96%     29.59        
Apr 03 01:53 3 3 Fog/Mist BKN007 OVC013 59 58     96%     29.6 29.58      
Apr 03 01:21 Calm 5 Fog/Mist FEW007 OVC012 60 58     93%     29.6        
Apr 03 00:53 E 3 10 Cloudy OVC014 60 58     93%     29.62 29.6      
Apr 03 00:51 3 10 Cloudy OVC014 61 57     88%     29.62        
Apr 02 23:53 NNE 3 10 Cloudy OVC016 60 58     93%     29.65 29.63      
Apr 02 22:53 NNE 3 10 Cloudy OVC019 60 57     90%     29.67 29.66      
Apr 02 21:53 Calm 10 Cloudy OVC024 59 58     96%     29.7 29.68      
Apr 02 20:53 Calm 10 Cloudy OVC018 59 57     93%     29.68 29.67      
Apr 02 19:53 Calm 10 Cloudy OVC016 60 57     90%     29.66 29.64      
Apr 02 19:30 NE 6 10 Cloudy OVC015 60 57     90%     29.67        
Apr 02 17:53 ENE 14 10 Light Rain FEW070 FEW090 BKN120 60 58     93%     29.7   0    
Apr 02 17:34   8 Light Rain BKN110 60 58     93%     29.7   0    
Apr 02 17:19 E 14 7 Thunderstorms and Rain OVC110 60 58     93%     29.73   0    
Apr 02 17:04 E 10 4 Rain and Fog/Mist FEW080 OVC100 60 58     93%     29.78   0    
Apr 02 16:53 E 6 4 Rain and Fog/Mist SCT080 OVC100 60 58     93%     29.8 29.78      
Apr 02 16:09 E 6 3 Heavy Rain and Fog/Mist BKN090 OVC100 60 58     93%     29.83        
Apr 02 15:44 6 2.5 Heavy Rain and Fog/Mist BKN080 OVC100 60 58     93%     29.86        
Apr 02 15:37 Calm 2.5 Heavy Rain and Fog/Mist FEW049 BKN080 OVC100 60 58     93%     29.86        
Apr 02 15:29 SE 5 3 Rain and Fog/Mist FEW047 BKN075 OVC100 61 58     90%     29.86        
Apr 02 14:53 SSE 5 6 Rain SCT060 BKN085 OVC110 63 58     84%     29.87 29.85 0    
Apr 02 13:53 Calm 10 Light Rain OVC110 65 57     76%     29.87 29.85 0    
Apr 02 12:53 7 10 Clear CLR 67 52     59%     29.9 29.88      
Apr 02 11:53 ESE 10 10 Mostly Cloudy BKN060 68 51     55%     29.92 29.91      
Apr 02 10:53 ESE 8 10 Mostly Clear FEW065 64 49     58%     29.96 29.94      
Apr 02 09:53 ESE 9 10 Clear CLR 60 48     64%     29.97 29.96      
Apr 02 08:53 E 8 10 Clear CLR 58 47     67%     30 29.98      
Apr 02 07:53 5 10 Mostly Clear FEW070 55 47     74%     30.02 30.01      
Apr 02 06:53 E 3 10 Mostly Cloudy BKN070 55 47     74%     30.04 30.02      
Apr 02 05:53 E 5 10 Clear CLR 54 48     80%     30.03 30.01      
Apr 02 04:53 Calm 10 Clear CLR 54 48     80%     30.03 30.01      
Apr 02 03:53 ESE 6 10 Mostly Clear FEW070 55 47     74%     30.01 29.99      
Apr 02 02:53 ESE 7 10 Clear CLR 56 48     75%     30.02 30      
Apr 02 01:53 7 10 Clear CLR 57 49     74%     30.03 30.01      
Apr 02 00:53 3 10 Clear CLR 58 50     75%     30.04 30.02      
Apr 01 23:53 E 5 10 Clear CLR 59 49     69%     30.06 30.04      
Apr 01 21:53 E 10 10 Clear CLR 61 50     67%     30.08 30.06      
Apr 01 20:53 ENE 6 10 Clear CLR 63 51     65%     30.05 30.04      
Apr 01 19:53 ENE 5 10 Clear CLR 65 51     61%     30.04 30.02      
Apr 01 18:53 6 10 Clear CLR 67 51     57%     30.02 30      
Apr 01 17:53 E 11 10 Clear CLR 70 52     53%     30 29.98      
Apr 01 16:53 ESE 14 10 Clear   71 52     51%   70 30.02 30      
Apr 01 15:53 SE 9 10 Clear CLR 70 51     51%     30.04 30.02      
Apr 01 14:53 ESE 8 10 Clear CLR 70 52     53%     30.06 30.04      
Apr 01 13:53 E 8 10 Clear CLR 68 50     53%     30.09 30.08      
Apr 01 12:53 E 8 10 Clear CLR 64 49     58%     30.1 30.09      
Apr 01 11:53 ESE 8 10 Clear CLR 62 48     60%     30.12 30.11      
Apr 01 10:53 ESE 9 10 Clear CLR 59 46     62%     30.14 30.12      
Apr 01 09:53 ENE 11 10 Clear CLR 56 45     67%     30.14 30.13      
Apr 01 08:53 ENE 9 10 Clear CLR 53 45     74%     30.13 30.12      
Apr 01 07:53 ENE 8 10 Clear CLR 51 44     77%     30.11 30.09      
Apr 01 06:53 ENE 6 10 Clear CLR 50 44     80% 48   30.07 30.06      
Apr 01 05:53 E 7 10 Clear CLR 51 44     77%     30.05 30.03      
Apr 01 04:53 E 6 10 Clear CLR 52 44     74%     30.04 30.02      
Apr 01 03:53 ENE 6 10 Clear CLR 53 45     74%     30.03 30.01      
Apr 01 02:53 E 8 10 Clear CLR 56 46     69%     30.01 29.99      
Apr 01 01:53 E 9 10 Clear CLR 58 47     67%     30 29.98      
Apr 01 00:53 E 5 10 Clear CLR 61 48     62%     29.98 29.96      
Mar 31 23:53 E 6 10 Clear CLR 62 47     58%     29.95 29.94      
Mar 31 22:53 ENE 10 10 Clear CLR 63 48     58%     29.94 29.92      
Mar 31 21:53 E 5 10 Clear CLR 65 46     50%     29.92 29.9      
Mar 31 20:53 E 5 10 Clear CLR 63 47     56%     29.89 29.88      
Mar 31 19:53 ESE 3 10 Clear CLR 64 47     54%     29.87 29.85      
Mar 31 18:53 E 3 10 Clear CLR 71 46     41%   70 29.86 29.84      
Mar 31 17:53 Calm 10 Clear CLR 72 44     37%   71 29.85 29.83      
Mar 31 16:53 ENE 5 10 Clear CLR 73 47     39%   72 29.84 29.83      
Mar 31 15:53 Calm 10 Clear CLR 72 48     43%   71 29.85 29.83      
Mar 31 14:53 Calm 10 Clear CLR 69 47     45%     29.86 29.84      
Mar 31 13:53 Calm 10 Clear CLR 65 47     52%     29.88 29.87      
Mar 31 11:53 Calm 10 Clear CLR 61 46     58%     29.91 29.9      
Mar 31 10:53 3 10 Clear CLR 58 45     62%     29.91 29.9      
Mar 31 09:53 N 7 10 Clear CLR 55 45     69%     29.9 29.88      
Mar 31 08:53 NNW 6 10 Clear CLR 52 44     74%     29.89 29.88      
Mar 31 07:53 Calm 10 Clear CLR 46 44     93%     29.87 29.86      
Mar 31 07:36 Calm 10 Partly Cloudy SCT024 45 43     93%     29.86        
Mar 31 06:53 Calm 10 Cloudy OVC025 45 43     93%     29.87 29.86      
Mar 31 05:53 Calm 10 Cloudy OVC027 44 43     96%     29.84 29.83      
Mar 31 05:39 ENE 3 10 Mostly Cloudy BKN027 43 41     93% 41   29.84        
Mar 31 04:53 Calm 10 Clear CLR 43 41     93%     29.82 29.8      
Mar 31 03:53 Calm 10 Clear CLR 45 42     90%     29.79 29.78      
Mar 31 02:53 W 3 10 Clear CLR 48 43     83% 47   29.78 29.77      
Mar 31 01:53 NW 7 10 Clear CLR 50 43     77% 47   29.78 29.77      
Mar 31 00:53 NW 9 10 Clear CLR 51 43     74%     29.78 29.77      
Mar 30 23:53 WNW 7 10 Clear CLR 51 44     77%     29.78 29.77      
Mar 30 22:53 WNW 3 10 Clear CLR 50 44     80% 49   29.78 29.77      
Mar 30 21:53 W 7 10 Cloudy OVC050 53 44     71%     29.76 29.75      
Mar 30 20:53 W 8 10 Clear   54 44     69%     29.75 29.73      
Mar 30 19:53 WNW 9 10 Cloudy SCT037 OVC060 54 44     69%     29.74 29.72      
Mar 30 18:53 W 9 10 Cloudy BKN038 OVC065 55 44     66%     29.73 29.72      
Mar 30 17:53 W 5 10 Clear   55 43     64%     29.73 29.71      
Mar 30 16:53 WNW 10 10 Cloudy OVC039 55 43     64%     29.72 29.71      
Mar 30 15:53 WSW 8 10 Cloudy OVC037 55 42     62%     29.71 29.7      
Mar 30 14:53 W 11 10 Cloudy OVC038 54 42     64%     29.72 29.7      
Mar 30 13:53 WSW 13 10 Cloudy OVC037 55 42     62%     29.71 29.7      
Mar 30 12:53 SW 9 10 Cloudy SCT032 OVC043 54 41     61%     29.71 29.7      
Mar 30 11:53 SW 9 10 Clear   53 41     63%     29.73 29.71      
Mar 30 10:53 WSW 14 10 Cloudy OVC031 53 42     66%     29.73 29.71      
Mar 30 09:53 W 9 10 Cloudy OVC030 52 42     69%     29.71 29.7      
Mar 30 01:53 SW 5 4 Fog/Mist SCT034 BKN090 BKN120 60 59     96%     29.69 29.67      
Mar 30 00:53 Calm 10 Clear   61 60     97%     29.69 29.67 0    
Mar 29 23:53 ESE 6 10 Cloudy OVC090 62 60     93%     29.69 29.67      
Mar 29 23:44 Calm 10 Cloudy FEW050 SCT075 OVC090 62 59     90%     29.69        
Mar 29 23:22 SSW 10 5 Rain and Fog/Mist FEW010 BKN047 OVC070 63 61     93%     29.73        
Mar 29 23:12 SSW 10 2 Thunderstorms and Rain and Fog/Mist SCT040 BKN070 OVC090 63 61     93%     29.71        
Mar 29 22:53 E 7 6 Thunderstorms and Rain and Fog/Mist FEW022 BKN045 OVC090 64 61     90%     29.69 29.67      
Mar 29 22:27 SSE 5 6 Thunderstorms and Rain and Fog/Mist SCT022 BKN036 OVC065 64 63     96%     29.71   0    
Mar 29 22:16 Calm 10 Mostly Cloudy FEW037 SCT050 BKN060 65 63     93%     29.69        
Mar 29 21:53 Calm 6 Fog/Mist CLR 63 62     97%     29.7 29.68   0  
Mar 29 20:53 W 3 10 Mostly Cloudy FEW032 FEW090 BKN110 67 63     87%     29.71 29.7 0    
Mar 29 20:45 Calm 10 Mostly Cloudy FEW027 SCT040 BKN120 68 63     84%     29.71   0    
Mar 29 20:37 S 3 10 Mostly Cloudy FEW026 BKN045 BKN090 67 63     87%     29.71   0    
Mar 29 20:18 SW 10 10 Thunderstorms SCT045 BKN070 BKN090 72 61     68%   72 29.72        
Mar 29 19:53 SSE 5 10 Mostly Cloudy BKN060 BKN090 74 59     60%   74 29.69 29.67      
Mar 29 18:53 SSE 6 10 Cloudy BKN060 BKN070 OVC085 75 59     57%   75 29.68 29.66      
Mar 29 18:32 SE 6 10 Cloudy FEW049 BKN060 OVC080 75 59     57%   75 29.68        
Mar 29 17:53 SSE 6 10 Cloudy FEW060 SCT075 OVC090 75 61     62%   75 29.69 29.67      
Mar 29 16:53 S 11 10 Mostly Cloudy SCT065 BKN110 77 60     56%   77 29.7 29.68      
Mar 29 15:53 SSE 6 10 Cloudy FEW049 BKN060 OVC080 76 59     56%   76 29.73 29.71      
Mar 29 14:53 S 7 10 Mostly Cloudy BKN050 BKN065 BKN095 76 58     54%   76 29.75 29.73      
Mar 29 13:53 S 11 10 Clear CLR 76 61     60%   76 29.76 29.74      
Mar 29 13:16 SE 9 10 Partly Cloudy FEW002 SCT033 73 62     68%   73 29.77        
Mar 29 11:53 E 10 10 Mostly Clear FEW010 FEW100 67 63     87%     29.79 29.77 0    
Mar 29 11:14 ESE 10 10 Mostly Clear FEW008 65 62     90%     29.82   0    
Mar 29 10:53 E 8 10 Clear CLR 63 61     93%     29.79 29.78      
Mar 29 10:00 ENE 8 5 Light Rain and Fog/Mist FEW035 BKN080 OVC100 59 58     96%     29.83        
Mar 29 09:51 ENE 10 2.5 Heavy Rain and Fog/Mist SCT015 BKN036 OVC095 59 57     94%     29.86        
Mar 29 09:44 3 1.75 Rain and Fog/Mist SCT015 BKN036 OVC060 59 57     93%     29.89        
Mar 29 09:29 6 1.75 Thunderstorms and Heavy Rain and Fog/Mist OVC017 60 56     86%     29.9   0    
Mar 29 09:23 3 8 Thunderstorms and Rain OVC017 61 56     83%     29.88   0    
Mar 29 09:07 6 10 Mostly Cloudy BKN019 BKN095 61 56     83%     29.86        
Mar 29 08:53 7 10 Partly Cloudy FEW019 SCT095 61 55     81%     29.85 29.84      
Mar 29 07:53 ESE 13 10 Partly Cloudy SCT120 60 54     80%     29.83 29.81      
Mar 29 06:53 ESE 7 10 Mostly Clear FEW110 59 54     83%     29.85 29.83     0
Mar 29 05:53 Calm 10 Mostly Cloudy BKN065 BKN080 60 54     80%     29.87 29.85      
Mar 29 04:53 E 9 10 Partly Cloudy SCT060 59 53     81%     29.82 29.8      
Mar 29 03:53 E 8 10 Cloudy BKN055 OVC080 61 54     78%     29.84 29.83   0  
Mar 29 02:53 E 7 10 Mostly Cloudy SCT044 BKN055 61 54     78%     29.86 29.84      
Mar 29 01:53 E 9 10 Mostly Cloudy SCT048 BKN080 62 55     78%     29.87 29.85 0    
Mar 29 00:53 E 11 10 Mostly Cloudy FEW060 BKN090 63 56     78%     29.88 29.86      
Mar 28 23:53 E 10 10 Mostly Cloudy FEW065 BKN090 64 56     75%     29.89 29.87      
Mar 28 22:53 5 10 Mostly Cloudy BKN090 64 57     78%     29.9 29.89      
Mar 28 21:53 E 6 10 Partly Cloudy SCT080 65 56     73%     29.9 29.88      
Mar 28 20:53 ENE 7 10 Partly Cloudy FEW047 SCT070 67 57     71%     29.91 29.89      
Mar 28 19:53 E 9 10 Clear CLR 69 57     65%     29.89 29.87      
Mar 28 18:53 E 7 10 Cloudy OVC044 72 57     59%   72 29.88 29.87      
Mar 28 17:53 E 9 10 Cloudy OVC050 72 58     61%   72 29.88 29.87      
Mar 28 16:53 ESE 8 10 Partly Cloudy SCT055 74 59     60%   74 29.89 29.87      
Mar 28 15:53 SSE 9 10 Clear CLR 73 58     59%   73 29.89 29.88      
Mar 28 14:53 ESE 10 10 Clear CLR 71 57     61%   71 29.93 29.91      
Mar 28 14:03 ESE 8 10 Mostly Clear FEW024 69 57     65%     29.96        
Mar 28 13:53 E 9 10 Mostly Cloudy BKN024 68 56     65%     29.97 29.95      
Mar 28 13:33 E 8 10 Mostly Cloudy BKN023 68 56     65%     29.98        
Mar 28 12:53 SE 8 10 Cloudy OVC046 66 55     68%     30 29.98      
Mar 28 12:28 ESE 9 10 Partly Cloudy SCT026 SCT045 67 55     66%     30.01        
Mar 28 11:53 6 10 Mostly Cloudy BKN021 65 54     68%     30.02 30      
Mar 28 10:53 E 9 10 Cloudy OVC019 62 53     72%     30.03 30.01